FW2308 Weather Reports


time (UTC)temp
C
wind
direction
speed
KPH
gust
KPH
rain 1hr
cm
rain 24hr
cm
rain mn
cm
humidity
%
barometer
mb
20260509000057 18 130 0.0 0.0 0.00 0.00 0.00 71 1014.0
20260508234605 18 130 0.0 0.0 0.00 0.00 0.00 67 1013.9
20260508233056 19 129 0.0 0.0 0.00 0.00 0.00 67 1013.5
20260508231558 19 129 0.0 0.0 0.00 0.00 0.00 65 1013.8
20260508230057 20 139 0.0 3.2 0.00 0.00 0.00 64 1013.6
20260508224557 20 167 0.0 3.2 0.00 0.00 0.00 63 1013.7
20260508223054 20 129 0.0 3.2 0.00 0.00 0.00 62 1014.0
20260508221553 20 135 0.0 4.8 0.00 0.00 0.00 61 1013.8
20260508220052 20 167 1.6 4.8 0.00 0.00 0.00 59 1013.7
20260508214604 20 170 0.0 6.4 0.00 0.00 0.00 57 1013.9
20260508213051 21 155 0.0 6.4 0.00 0.00 0.00 55 1013.5
20260508211549 21 68 1.6 6.4 0.00 0.00 0.00 56 1013.7
20260508210053 21 70 0.0 8.0 0.00 0.00 0.00 55 1013.9
20260508204550 21 119 1.6 4.8 0.00 0.00 0.00 56 1013.9
20260508203048 21 153 0.0 6.4 0.00 0.00 0.00 54 1013.8
20260508201547 21 110 1.6 8.0 0.00 0.00 0.00 53 1014.1
20260508200046 21 120 4.8 11.3 0.00 0.00 0.00 52 1014.4
20260508194546 21 309 0.0 8.0 0.00 0.00 0.00 55 1014.6
20260508193058 21 101 1.6 8.0 0.00 0.00 0.00 51 1014.9
20260508191551 21 90 1.6 6.4 0.00 0.00 0.00 52 1014.9
20260508184544 21 147 3.2 11.3 0.00 0.00 0.00 51 1015.3
20260508183056 21 282 1.6 8.0 0.00 0.00 0.00 53 1015.6
20260508181542 21 139 1.6 6.4 0.00 0.00 0.00 57 1016.0
20260508180056 21 56 3.2 9.7 0.00 0.00 0.00 57 1016.2
20260508174558 21 46 4.8 9.7 0.00 0.00 0.00 54 1016.1
20260508173039 22 54 1.6 6.4 0.00 0.00 0.00 49 1016.3
20260508171539 20 311 1.6 6.4 0.00 0.00 0.00 56 1016.6
20260508170043 21 48 4.8 9.7 0.00 0.00 0.00 52 1016.6
20260508164544 20 148 1.6 9.7 0.00 0.00 0.00 55 1016.8
20260508163036 20 80 1.6 9.7 0.00 0.00 0.00 54 1017.2
20260508161531 19 6 1.6 8.0 0.00 0.00 0.00 56 1017.5
20260508160031 18 100 3.2 11.3 0.00 0.00 0.00 57 1017.7
20260508154528 18 35 4.8 8.0 0.00 0.00 0.00 58 1017.9
20260508153033 18 59 3.2 11.3 0.00 0.00 0.00 65 1018.2
20260508151524 18 39 3.2 8.0 0.00 0.00 0.00 67 1018.4
20260508150023 18 156 0.0 4.8 0.00 0.00 0.00 65 1018.3
20260508144527 17 72 3.2 6.4 0.00 0.25 0.00 64 1018.2
20260508143016 16 40 3.2 8.0 0.00 0.25 0.00 70 1017.9
20260508141515 16 52 1.6 6.4 0.00 0.25 0.00 67 1018.2
20260508140022 16 47 6.4 9.7 0.00 0.25 0.00 69 1018.3
20260508134513 16 46 6.4 11.3 0.00 0.58 0.00 68 1018.4
20260508133010 16 32 8.0 12.9 0.00 0.58 0.00 69 1018.4
20260508131507 16 38 6.4 11.3 0.00 0.58 0.00 67 1018.2
20260508130002 16 46 3.2 9.7 0.00 1.09 0.00 70 1018.2
20260508124600 15 36 6.4 8.0 0.00 1.09 0.00 69 1018.0
20260508123115 15 42 6.4 11.3 0.00 1.09 0.00 67 1017.8
20260508121604 15 43 6.4 12.9 0.00 1.09 0.00 72 1017.5
20260508120106 14 49 3.2 8.0 0.00 1.09 0.00 74 1017.4
20260508114558 13 65 0.0 3.2 0.00 3.51 0.00 84 1017.2
20260508113056 12 153 0.0 3.2 0.00 3.51 0.00 91 1017.0
20260508111549 11 142 0.0 0.0 0.00 3.51 0.00 93 1016.7
20260508110044 10 142 0.0 0.0 0.00 3.51 0.00 93 1016.1
20260508104546 10 142 0.0 0.0 0.00 3.66 0.00 92 1015.8
20260508103054 10 142 0.0 0.0 0.00 3.66 0.00 92 1015.6
20260508101549 10 142 0.0 0.0 0.00 3.66 0.00 92 1015.5
20260508100037 10 142 0.0 0.0 0.00 3.66 0.00 92 1015.4
20260508094534 10 142 0.0 0.0 0.00 3.66 0.00 91 1015.0
20260508093038 11 142 0.0 0.0 0.00 3.66 0.00 91 1014.8
20260508091534 11 142 0.0 0.0 0.00 3.66 0.00 90 1014.8
20260508090028 11 142 0.0 0.0 0.00 3.66 0.00 90 1014.8
20260508084525 11 142 0.0 0.0 0.00 3.71 0.00 89 1014.6
20260508083024 12 142 0.0 0.0 0.00 3.71 0.00 89 1014.4
20260508081523 12 142 0.0 0.0 0.00 3.71 0.00 88 1014.5
20260508080022 12 142 0.0 0.0 0.00 3.71 0.00 87 1014.5
20260508074522 12 142 0.0 0.0 0.00 3.84 0.00 87 1014.2
20260508073022 12 142 0.0 0.0 0.00 3.84 0.00 88 1014.3
20260508071520 12 142 0.0 0.0 0.00 3.84 0.00 88 1014.2
20260508070017 11 300 0.0 0.0 0.00 3.84 0.00 87 1014.1
20260508064517 11 300 0.0 0.0 0.00 4.29 0.00 86 1014.1
20260508063015 12 300 0.0 0.0 0.00 4.29 0.00 85 1014.1
20260508061510 12 300 0.0 0.0 0.00 4.29 0.00 84 1014.1
20260508060008 12 300 0.0 0.0 0.00 4.29 0.00 82 1014.1
20260508054504 13 300 0.0 1.6 0.00 4.88 0.00 81 1014.0
20260508053003 13 300 0.0 1.6 0.00 4.88 0.00 81 1014.2
20260508051559 13 300 0.0 0.0 0.00 4.88 0.00 80 1014.2
20260508044557 14 302 0.0 0.0 0.00 5.23 0.00 79 1013.7
20260508043103 14 295 0.0 0.0 0.00 5.23 0.00 78 1013.9
20260508041559 15 295 0.0 0.0 0.00 5.23 0.00 76 1013.8
20260508040050 15 295 0.0 0.0 0.00 5.23 0.00 75 1013.7
20260508034548 15 309 0.0 0.0 0.00 5.82 5.23 74 1013.7
20260508033045 15 309 0.0 3.2 0.00 5.82 5.23 73 1013.5
20260508031543 16 300 0.0 1.6 0.00 5.82 5.23 72 1013.5
20260508030044 16 307 0.0 4.8 0.00 5.82 5.23 71 1013.5
20260508024541 16 292 0.0 1.6 0.00 6.35 5.23 70 1013.2
20260508023037 16 302 0.0 3.2 0.00 6.35 5.23 69 1013.1
20260508021536 16 294 0.0 3.2 0.00 6.35 5.23 68 1012.8
20260508020040 17 295 0.0 6.4 0.00 6.35 5.23 67 1012.7
20260508014531 17 307 0.0 6.4 0.00 6.99 5.23 67 1012.4
20260508013028 17 300 0.0 4.8 0.00 6.99 5.23 66 1012.1
20260508011529 17 296 0.0 4.8 0.00 6.99 5.23 65 1012.0
20260508010028 18 302 0.0 6.4 0.00 6.99 5.23 64 1011.7
20260508004526 18 299 0.0 3.2 0.00 9.25 5.23 64 1011.6
20260508003026 18 299 0.0 3.2 0.00 9.25 5.23 63 1011.3
20260508001544 19 302 0.0 6.4 0.00 9.25 5.23 61 1011.2